contact:dominique.lefevre@mio.osupytheas.fr, maurice.libes@osupytheas.fr, didier.mallarino@osupytheas.fr
Project:EMSO http://www.emso-fr.org/EMSO-France
Depth: 2436.0 m
Title:EMSO Ligure Ouest : Data MII capteur MICROCAT
DateTime_Computer,Latitude,Longitude,Temperature,Conductivity,Pressure,DateTime_Instrument
DateTime_Computer,Latitude,Longitude,degC,S m-1,dbar,DateTime_Instrument
2020-06-08T00:02:45Z,42.805,6.029,13.3028,4.60044,2470.171,2020-6-08T02:03:28Z
2020-06-08T00:05:48Z,42.805,6.029,13.3000,4.60026,2470.156,2020-6-08T02:06:32Z
2020-06-08T00:08:51Z,42.805,6.029,13.3014,4.60026,2470.171,2020-6-08T02:09:35Z
2020-06-08T00:11:54Z,42.805,6.029,13.2996,4.60019,2470.171,2020-6-08T02:12:38Z
2020-06-08T00:14:57Z,42.805,6.029,13.2998,4.60031,2470.18,2020-6-08T02:15:41Z
2020-06-08T00:18:01Z,42.805,6.029,13.3012,4.60051,2470.133,2020-6-08T02:18:45Z
2020-06-08T00:21:04Z,42.805,6.029,13.3006,4.60026,2470.124,2020-6-08T02:21:48Z
2020-06-08T00:24:07Z,42.805,6.029,13.3000,4.60020,2470.147,2020-6-08T02:24:51Z
2020-06-08T00:27:11Z,42.805,6.029,13.3007,4.60051,2470.147,2020-6-08T02:27:54Z
2020-06-08T00:30:14Z,42.805,6.029,13.3031,4.60070,2470.18,2020-6-08T02:30:58Z
2020-06-08T00:33:17Z,42.805,6.029,13.3030,4.60053,2470.133,2020-6-08T02:34:01Z
2020-06-08T00:36:20Z,42.805,6.029,13.3002,4.60033,2470.133,2020-6-08T02:37:04Z
2020-06-08T00:39:23Z,42.805,6.029,13.3016,4.60004,2470.11,2020-6-08T02:40:07Z
2020-06-08T00:42:27Z,42.805,6.029,13.3031,4.60019,2470.156,2020-6-08T02:43:11Z
2020-06-08T00:45:30Z,42.805,6.029,13.3011,4.60028,2470.124,2020-6-08T02:46:14Z
2020-06-08T00:48:33Z,42.805,6.029,13.3015,4.60049,2470.11,2020-6-08T02:49:17Z
2020-06-08T00:51:36Z,42.805,6.029,13.3012,4.60087,2470.133,2020-6-08T02:52:20Z
2020-06-08T00:54:40Z,42.805,6.029,13.3015,4.60061,2470.147,2020-6-08T02:55:24Z
2020-06-08T00:57:43Z,42.805,6.029,13.3020,4.60046,2470.087,2020-6-08T02:58:27Z
2020-06-08T01:00:46Z,42.805,6.029,13.3003,4.60061,2470.124,2020-6-08T03:01:30Z
2020-06-08T01:03:49Z,42.805,6.029,13.2996,4.60034,2470.11,2020-6-08T03:04:33Z
2020-06-08T01:06:53Z,42.805,6.029,13.2996,4.60036,2470.11,2020-6-08T03:07:36Z
2020-06-08T01:09:56Z,42.805,6.029,13.2999,4.60039,2470.11,2020-6-08T03:10:40Z
2020-06-08T01:12:59Z,42.805,6.029,13.2997,4.60049,2470.124,2020-6-08T03:13:43Z
2020-06-08T01:16:02Z,42.805,6.029,13.3004,4.60041,2470.11,2020-6-08T03:16:46Z
2020-06-08T01:19:06Z,42.805,6.029,13.2993,4.60049,2470.087,2020-6-08T03:19:49Z
2020-06-08T01:22:09Z,42.805,6.029,13.2990,4.60066,2470.087,2020-6-08T03:22:53Z
2020-06-08T01:25:12Z,42.805,6.029,13.2987,4.60052,2470.1,2020-6-08T03:25:56Z
2020-06-08T01:28:15Z,42.805,6.029,13.2990,4.60062,2470.063,2020-6-08T03:28:59Z
2020-06-08T01:31:18Z,42.805,6.029,13.2991,4.60052,2470.1,2020-6-08T03:32:02Z
2020-06-08T01:34:22Z,42.805,6.029,13.3001,4.60082,2470.087,2020-6-08T03:35:05Z
2020-06-08T01:37:25Z,42.805,6.029,13.2993,4.60062,2470.063,2020-6-08T03:38:09Z
2020-06-08T01:40:28Z,42.805,6.029,13.2991,4.60081,2470.133,2020-6-08T03:41:12Z
2020-06-08T01:43:31Z,42.805,6.029,13.2999,4.60062,2470.063,2020-6-08T03:44:15Z
2020-06-08T01:46:34Z,42.805,6.029,13.3003,4.60051,2470.063,2020-6-08T03:47:18Z
2020-06-08T01:49:38Z,42.805,6.029,13.2997,4.60056,2470.063,2020-6-08T03:50:21Z
2020-06-08T01:52:41Z,42.805,6.029,13.2993,4.60061,2470.087,2020-6-08T03:53:25Z
2020-06-08T01:55:44Z,42.805,6.029,13.2992,4.60052,2470.1,2020-6-08T03:56:28Z
2020-06-08T01:58:47Z,42.805,6.029,13.2996,4.60051,2470.077,2020-6-08T03:59:31Z
2020-06-08T02:01:51Z,42.805,6.029,13.2996,4.60074,2470.063,2020-6-08T04:02:34Z
2020-06-08T02:04:54Z,42.805,6.029,13.3008,4.60046,2470.063,2020-6-08T04:05:38Z
2020-06-08T02:07:57Z,42.805,6.029,13.2991,4.60050,2470.077,2020-6-08T04:08:41Z
2020-06-08T02:11:00Z,42.805,6.029,13.3006,4.60081,2470.053,2020-6-08T04:11:44Z
2020-06-08T02:14:03Z,42.805,6.029,13.2988,4.60050,2470.11,2020-6-08T04:14:47Z
2020-06-08T02:17:07Z,42.805,6.029,13.2996,4.60052,2470.077,2020-6-08T04:17:50Z
2020-06-08T02:20:10Z,42.805,6.029,13.2993,4.60053,2470.063,2020-6-08T04:20:54Z
2020-06-08T02:23:13Z,42.805,6.029,13.3009,4.60046,2470.087,2020-6-08T04:23:57Z
2020-06-08T02:26:16Z,42.805,6.029,13.3002,4.60050,2470.077,2020-6-08T04:27:00Z
2020-06-08T02:29:20Z,42.805,6.029,13.2998,4.60052,2470.063,2020-6-08T04:30:03Z
2020-06-08T02:32:23Z,42.805,6.029,13.2999,4.60066,2470.053,2020-6-08T04:33:07Z
2020-06-08T02:35:26Z,42.805,6.029,13.2998,4.60055,2470.04,2020-6-08T04:36:10Z
2020-06-08T02:38:29Z,42.805,6.029,13.2996,4.60036,2470.063,2020-6-08T04:39:13Z
2020-06-08T02:41:32Z,42.805,6.029,13.3003,4.60049,2470.063,2020-6-08T04:42:16Z
2020-06-08T02:44:36Z,42.805,6.029,13.2993,4.60057,2470.03,2020-6-08T04:45:20Z
2020-06-08T02:47:39Z,42.805,6.029,13.2991,4.60055,2470.053,2020-6-08T04:48:23Z
2020-06-08T02:50:42Z,42.805,6.029,13.2998,4.60046,2470.04,2020-6-08T04:51:26Z
2020-06-08T02:53:45Z,42.805,6.029,13.2999,4.60036,2470.053,2020-6-08T04:54:29Z
2020-06-08T02:56:49Z,42.805,6.029,13.3004,4.60053,2470.063,2020-6-08T04:57:32Z
2020-06-08T02:59:52Z,42.805,6.029,13.2998,4.60069,2470.063,2020-6-08T05:00:36Z
2020-06-08T03:02:55Z,42.805,6.029,13.2998,4.60036,2470.063,2020-6-08T05:03:39Z
2020-06-08T03:05:58Z,42.805,6.029,13.2999,4.60049,2470.063,2020-6-08T05:06:42Z
2020-06-08T03:09:01Z,42.805,6.029,13.2990,4.60062,2470.04,2020-6-08T05:09:45Z
2020-06-08T03:12:05Z,42.805,6.029,13.3007,4.60049,2470.04,2020-6-08T05:12:48Z
2020-06-08T03:15:08Z,42.805,6.029,13.2991,4.60046,2470.063,2020-6-08T05:15:52Z
2020-06-08T03:18:11Z,42.805,6.029,13.2985,4.60049,2470.03,2020-6-08T05:18:55Z
2020-06-08T03:21:14Z,42.805,6.029,13.3018,4.60056,2470.053,2020-6-08T05:21:58Z
2020-06-08T03:24:18Z,42.805,6.029,13.2991,4.60034,2470.017,2020-6-08T05:25:01Z
2020-06-08T03:27:21Z,42.805,6.029,13.2983,4.60026,2470.04,2020-6-08T05:28:05Z
2020-06-08T03:30:24Z,42.805,6.029,13.2988,4.60010,2470.04,2020-6-08T05:31:08Z
2020-06-08T03:33:27Z,42.805,6.029,13.2998,4.60019,2470.017,2020-6-08T05:34:11Z
2020-06-08T03:36:31Z,42.805,6.029,13.2993,4.60026,2470.03,2020-6-08T05:37:15Z
2020-06-08T03:39:34Z,42.805,6.029,13.2998,4.60021,2470.053,2020-6-08T05:40:18Z
2020-06-08T03:42:37Z,42.805,6.029,13.2991,4.60015,2470.017,2020-6-08T05:43:21Z
2020-06-08T03:45:41Z,42.805,6.029,13.2989,4.60019,2470.063,2020-6-08T05:46:24Z
2020-06-08T03:48:44Z,42.805,6.029,13.2989,4.60023,2470.017,2020-6-08T05:49:28Z
2020-06-08T03:51:47Z,42.805,6.029,13.2993,4.60029,2470.04,2020-6-08T05:52:31Z
2020-06-08T03:54:50Z,42.805,6.029,13.2985,4.60026,2470.053,2020-6-08T05:55:34Z
2020-06-08T03:57:54Z,42.805,6.029,13.3001,4.60045,2470.017,2020-6-08T05:58:37Z
2020-06-08T04:00:57Z,42.805,6.029,13.3005,4.60045,2470.04,2020-6-08T06:01:41Z
2020-06-08T04:04:00Z,42.805,6.029,13.3000,4.60033,2470.017,2020-6-08T06:04:44Z
2020-06-08T04:07:03Z,42.805,6.029,13.2988,4.60026,2470.063,2020-6-08T06:07:47Z
2020-06-08T04:10:07Z,42.805,6.029,13.2988,4.60023,2470.04,2020-6-08T06:10:50Z
2020-06-08T04:13:10Z,42.805,6.029,13.3001,4.60027,2470.053,2020-6-08T06:13:54Z
2020-06-08T04:16:13Z,42.805,6.029,13.2981,4.60015,2470.017,2020-6-08T06:16:57Z
2020-06-08T04:19:16Z,42.805,6.029,13.2988,4.60020,2470.017,2020-6-08T06:20:00Z
2020-06-08T04:22:19Z,42.805,6.029,13.2993,4.60010,2470.053,2020-6-08T06:23:03Z
2020-06-08T04:25:23Z,42.805,6.029,13.2982,4.60019,2470.04,2020-6-08T06:26:06Z
2020-06-08T04:28:26Z,42.805,6.029,13.2990,4.60029,2470.017,2020-6-08T06:29:10Z
2020-06-08T04:31:29Z,42.805,6.029,13.2986,4.60011,2470.087,2020-6-08T06:32:13Z
2020-06-08T04:34:32Z,42.805,6.029,13.2988,4.60008,2470.077,2020-6-08T06:35:16Z
2020-06-08T04:37:36Z,42.805,6.029,13.2983,4.60009,2470.04,2020-6-08T06:38:20Z
2020-06-08T04:40:39Z,42.805,6.029,13.2983,4.60017,2470.063,2020-6-08T06:41:23Z
2020-06-08T04:43:42Z,42.805,6.029,13.2992,4.60036,2470.017,2020-6-08T06:44:26Z
2020-06-08T04:46:46Z,42.805,6.029,13.2987,4.60017,2470.063,2020-6-08T06:47:29Z
2020-06-08T04:49:49Z,42.805,6.029,13.2987,4.60021,2470.04,2020-6-08T06:50:33Z
2020-06-08T04:52:52Z,42.805,6.029,13.2998,4.60013,2470.03,2020-6-08T06:53:36Z
2020-06-08T04:55:55Z,42.805,6.029,13.3001,4.60014,2470.087,2020-6-08T06:56:39Z
2020-06-08T04:58:59Z,42.805,6.029,13.2990,4.60011,2470.04,2020-6-08T06:59:42Z
2020-06-08T05:02:02Z,42.805,6.029,13.2995,4.60006,2470.03,2020-6-08T07:02:46Z
2020-06-08T05:05:05Z,42.805,6.029,13.2984,4.60005,2470.04,2020-6-08T07:05:49Z
2020-06-08T05:08:08Z,42.805,6.029,13.2984,4.60004,2470.017,2020-6-08T07:08:52Z
2020-06-08T05:11:12Z,42.805,6.029,13.2986,4.60005,2470.063,2020-6-08T07:11:55Z
2020-06-08T05:14:15Z,42.805,6.029,13.2986,4.60011,2470.063,2020-6-08T07:14:59Z
2020-06-08T05:17:18Z,42.805,6.029,13.2983,4.60020,2470.063,2020-6-08T07:18:02Z
2020-06-08T05:20:21Z,42.805,6.029,13.2998,4.60039,2470.053,2020-6-08T07:21:05Z
2020-06-08T05:23:25Z,42.805,6.029,13.3000,4.60046,2470.087,2020-6-08T07:24:08Z
2020-06-08T05:26:28Z,42.805,6.029,13.3009,4.60042,2470.063,2020-6-08T07:27:12Z
2020-06-08T05:29:31Z,42.805,6.029,13.2983,4.60020,2470.1,2020-6-08T07:30:15Z
2020-06-08T05:32:35Z,42.805,6.029,13.2993,4.60025,2470.063,2020-6-08T07:33:18Z
2020-06-08T05:35:38Z,42.805,6.029,13.3007,4.60031,2470.087,2020-6-08T07:36:22Z
2020-06-08T05:38:41Z,42.805,6.029,13.2983,4.60013,2470.077,2020-6-08T07:39:25Z
2020-06-08T05:41:44Z,42.805,6.029,13.2985,4.60020,2470.1,2020-6-08T07:42:28Z
2020-06-08T05:44:48Z,42.805,6.029,13.2990,4.60014,2470.1,2020-6-08T07:45:31Z
2020-06-08T05:47:51Z,42.805,6.029,13.2988,4.60006,2470.053,2020-6-08T07:48:35Z
2020-06-08T05:50:54Z,42.805,6.029,13.3006,4.60031,2470.087,2020-6-08T07:51:38Z
2020-06-08T05:53:57Z,42.805,6.029,13.2989,4.60031,2470.124,2020-6-08T07:54:41Z
2020-06-08T05:57:01Z,42.805,6.029,13.2997,4.60026,2470.124,2020-6-08T07:57:44Z
2020-06-08T06:00:04Z,42.805,6.029,13.2983,4.60010,2470.11,2020-6-08T08:00:48Z
2020-06-08T06:03:07Z,42.805,6.029,13.2992,4.60016,2470.11,2020-6-08T08:03:51Z
2020-06-08T06:06:10Z,42.805,6.029,13.3000,4.60035,2470.147,2020-6-08T08:06:54Z
2020-06-08T06:09:14Z,42.805,6.029,13.3014,4.60007,2470.147,2020-6-08T08:09:57Z
2020-06-08T06:12:17Z,42.805,6.029,13.3006,4.60041,2470.087,2020-6-08T08:13:01Z
2020-06-08T06:15:20Z,42.805,6.029,13.3010,4.60050,2470.1,2020-6-08T08:16:04Z
2020-06-08T06:18:23Z,42.805,6.029,13.2996,4.60033,2470.11,2020-6-08T08:19:07Z
2020-06-08T06:21:26Z,42.805,6.029,13.2992,4.60031,2470.11,2020-6-08T08:22:10Z
2020-06-08T06:24:29Z,42.805,6.029,13.3014,4.60016,2470.087,2020-6-08T08:25:13Z
2020-06-08T06:27:33Z,42.805,6.029,13.2986,4.60015,2470.124,2020-6-08T08:28:17Z
2020-06-08T06:30:36Z,42.805,6.029,13.2992,4.60021,2470.124,2020-6-08T08:31:20Z
2020-06-08T06:33:39Z,42.805,6.029,13.2988,4.60011,2470.11,2020-6-08T08:34:23Z
2020-06-08T06:36:43Z,42.805,6.029,13.2983,4.60015,2470.124,2020-6-08T08:37:26Z
2020-06-08T06:39:46Z,42.805,6.029,13.2994,4.60017,2470.11,2020-6-08T08:40:30Z
2020-06-08T06:42:49Z,42.805,6.029,13.2993,4.60025,2470.087,2020-6-08T08:43:33Z
2020-06-08T06:45:52Z,42.805,6.029,13.2987,4.60033,2470.063,2020-6-08T08:46:36Z
2020-06-08T06:48:56Z,42.805,6.029,13.2992,4.60024,2470.124,2020-6-08T08:49:39Z
2020-06-08T06:51:59Z,42.805,6.029,13.2992,4.60021,2470.124,2020-6-08T08:52:43Z
2020-06-08T06:55:02Z,42.805,6.029,13.2998,4.60062,2470.133,2020-6-08T08:55:46Z
2020-06-08T06:58:05Z,42.805,6.029,13.3018,4.60039,2470.133,2020-6-08T08:58:49Z
2020-06-08T07:01:09Z,42.805,6.029,13.3022,4.60036,2470.147,2020-6-08T09:01:52Z
2020-06-08T07:04:12Z,42.805,6.029,13.2993,4.60043,2470.171,2020-6-08T09:04:56Z
2020-06-08T07:07:15Z,42.805,6.029,13.2987,4.60028,2470.156,2020-6-08T09:07:59Z
2020-06-08T07:10:18Z,42.805,6.029,13.2995,4.60046,2470.156,2020-6-08T09:11:02Z
2020-06-08T07:13:22Z,42.805,6.029,13.2988,4.60026,2470.171,2020-6-08T09:14:05Z
2020-06-08T07:16:25Z,42.805,6.029,13.2993,4.60062,2470.156,2020-6-08T09:17:09Z
2020-06-08T07:19:28Z,42.805,6.029,13.3004,4.60036,2470.156,2020-6-08T09:20:12Z
2020-06-08T07:22:31Z,42.805,6.029,13.3006,4.60034,2470.147,2020-6-08T09:23:15Z
2020-06-08T07:25:34Z,42.805,6.029,13.2995,4.60049,2470.156,2020-6-08T09:26:18Z
2020-06-08T07:28:38Z,42.805,6.029,13.3009,4.60047,2470.156,2020-6-08T09:29:22Z
2020-06-08T07:31:41Z,42.805,6.029,13.3029,4.60031,2470.147,2020-6-08T09:32:25Z
2020-06-08T07:34:44Z,42.805,6.029,13.3025,4.60012,2470.11,2020-6-08T09:35:28Z
2020-06-08T07:37:47Z,42.805,6.029,13.3011,4.60026,2470.171,2020-6-08T09:38:31Z
2020-06-08T07:40:51Z,42.805,6.029,13.2995,4.60029,2470.171,2020-6-08T09:41:34Z
2020-06-08T07:43:54Z,42.805,6.029,13.3014,4.60046,2470.156,2020-6-08T09:44:38Z
2020-06-08T07:46:57Z,42.805,6.029,13.3006,4.60044,2470.133,2020-6-08T09:47:41Z
2020-06-08T07:50:00Z,42.805,6.029,13.3016,4.60072,2470.171,2020-6-08T09:50:44Z
2020-06-08T07:53:04Z,42.805,6.029,13.3001,4.60043,2470.171,2020-6-08T09:53:47Z
2020-06-08T07:56:07Z,42.805,6.029,13.2984,4.60055,2470.171,2020-6-08T09:56:51Z
2020-06-08T07:59:10Z,42.805,6.029,13.2996,4.60017,2470.171,2020-6-08T09:59:54Z
2020-06-08T08:02:13Z,42.805,6.029,13.2995,4.60028,2470.156,2020-6-08T10:02:57Z
2020-06-08T08:05:17Z,42.805,6.029,13.2996,4.60026,2470.124,2020-6-08T10:06:00Z
2020-06-08T08:08:20Z,42.805,6.029,13.3004,4.60051,2470.133,2020-6-08T10:09:04Z
2020-06-08T08:11:23Z,42.805,6.029,13.3003,4.60042,2470.147,2020-6-08T10:12:07Z
2020-06-08T08:14:26Z,42.805,6.029,13.3015,4.60043,2470.156,2020-6-08T10:15:10Z
2020-06-08T08:17:30Z,42.805,6.029,13.3024,4.60039,2470.156,2020-6-08T10:18:13Z
2020-06-08T08:20:33Z,42.805,6.029,13.3011,4.60057,2470.156,2020-6-08T10:21:17Z
2020-06-08T08:23:36Z,42.805,6.029,13.3031,4.60041,2470.147,2020-6-08T10:24:20Z
2020-06-08T08:26:39Z,42.805,6.029,13.3017,4.60046,2470.156,2020-6-08T10:27:23Z
2020-06-08T08:29:42Z,42.805,6.029,13.3011,4.60039,2470.133,2020-6-08T10:30:26Z
2020-06-08T08:32:46Z,42.805,6.029,13.3028,4.60038,2470.133,2020-6-08T10:33:29Z
2020-06-08T08:35:49Z,42.805,6.029,13.3008,4.60061,2470.194,2020-6-08T10:36:33Z
2020-06-08T08:38:52Z,42.805,6.029,13.3004,4.60029,2470.147,2020-6-08T10:39:36Z
2020-06-08T08:41:55Z,42.805,6.029,13.3032,4.60069,2470.124,2020-6-08T10:42:39Z
2020-06-08T08:44:59Z,42.805,6.029,13.3020,4.60033,2470.147,2020-6-08T10:45:42Z
2020-06-08T08:48:02Z,42.805,6.029,13.3015,4.60072,2470.133,2020-6-08T10:48:46Z
2020-06-08T08:51:05Z,42.805,6.029,13.3029,4.60077,2470.11,2020-6-08T10:51:49Z
2020-06-08T08:54:08Z,42.805,6.029,13.3028,4.60039,2470.171,2020-6-08T10:54:52Z
2020-06-08T08:57:12Z,42.805,6.029,13.3034,4.60058,2470.147,2020-6-08T10:57:55Z
2020-06-08T09:00:15Z,42.805,6.029,13.3039,4.60064,2470.156,2020-6-08T11:00:59Z
2020-06-08T09:03:18Z,42.805,6.029,13.3042,4.60061,2470.156,2020-6-08T11:04:02Z
2020-06-08T09:06:22Z,42.805,6.029,13.3036,4.60067,2470.147,2020-6-08T11:07:05Z
2020-06-08T09:09:25Z,42.805,6.029,13.3029,4.60052,2470.133,2020-6-08T11:10:09Z
2020-06-08T09:12:28Z,42.805,6.029,13.3011,4.60066,2470.133,2020-6-08T11:13:12Z
2020-06-08T09:15:31Z,42.805,6.029,13.3007,4.60075,2470.133,2020-6-08T11:16:15Z
2020-06-08T09:18:35Z,42.805,6.029,13.3019,4.60046,2470.133,2020-6-08T11:19:18Z
2020-06-08T09:21:38Z,42.805,6.029,13.3034,4.60052,2470.171,2020-6-08T11:22:22Z
2020-06-08T09:24:41Z,42.805,6.029,13.3036,4.60039,2470.11,2020-6-08T11:25:25Z
2020-06-08T09:27:44Z,42.805,6.029,13.3015,4.60031,2470.147,2020-6-08T11:28:28Z
2020-06-08T09:30:48Z,42.805,6.029,13.3024,4.60047,2470.147,2020-6-08T11:31:32Z
2020-06-08T09:33:51Z,42.805,6.029,13.2997,4.60035,2470.147,2020-6-08T11:34:35Z
2020-06-08T09:36:54Z,42.805,6.029,13.3021,4.60033,2470.147,2020-6-08T11:37:38Z
2020-06-08T09:39:57Z,42.805,6.029,13.3017,4.60019,2470.156,2020-6-08T11:40:41Z
2020-06-08T09:43:01Z,42.805,6.029,13.3008,4.60014,2470.11,2020-6-08T11:43:44Z
2020-06-08T09:46:04Z,42.805,6.029,13.2998,4.60014,2470.133,2020-6-08T11:46:48Z
2020-06-08T09:49:07Z,42.805,6.029,13.3002,4.59996,2470.133,2020-6-08T11:49:51Z
2020-06-08T09:52:10Z,42.805,6.029,13.2996,4.60010,2470.156,2020-6-08T11:52:54Z
2020-06-08T09:55:14Z,42.805,6.029,13.3006,4.60016,2470.124,2020-6-08T11:55:57Z
2020-06-08T09:58:17Z,42.805,6.029,13.2994,4.59986,2470.133,2020-6-08T11:59:01Z
2020-06-08T10:01:20Z,42.805,6.029,13.3014,4.60011,2470.147,2020-6-08T12:02:04Z
2020-06-08T10:04:23Z,42.805,6.029,13.3001,4.60019,2470.133,2020-6-08T12:05:07Z
2020-06-08T10:07:26Z,42.805,6.029,13.2993,4.60053,2470.133,2020-6-08T12:08:10Z
2020-06-08T10:10:30Z,42.805,6.029,13.2999,4.60026,2470.1,2020-6-08T12:11:13Z
2020-06-08T10:13:33Z,42.805,6.029,13.3001,4.60002,2470.156,2020-6-08T12:14:17Z
2020-06-08T10:16:36Z,42.805,6.029,13.2991,4.59999,2470.11,2020-6-08T12:17:20Z
2020-06-08T10:19:39Z,42.805,6.029,13.2993,4.60023,2470.147,2020-6-08T12:20:23Z
2020-06-08T10:22:43Z,42.805,6.029,13.2996,4.60013,2470.124,2020-6-08T12:23:26Z
2020-06-08T10:25:46Z,42.805,6.029,13.3000,4.59986,2470.124,2020-6-08T12:26:30Z
2020-06-08T10:28:49Z,42.805,6.029,13.2991,4.60029,2470.124,2020-6-08T12:29:33Z
2020-06-08T10:31:52Z,42.805,6.029,13.3015,4.60001,2470.1,2020-6-08T12:32:36Z
2020-06-08T10:34:56Z,42.805,6.029,13.2993,4.60012,2470.147,2020-6-08T12:35:40Z
2020-06-08T10:37:59Z,42.805,6.029,13.2995,4.60016,2470.073,2020-6-08T12:38:43Z
2020-06-08T10:41:02Z,42.805,6.029,13.3000,4.59993,2470.1,2020-6-08T12:41:46Z
2020-06-08T10:44:05Z,42.805,6.029,13.3014,4.60006,2470.133,2020-6-08T12:44:49Z
2020-06-08T10:47:09Z,42.805,6.029,13.3002,4.60015,2470.063,2020-6-08T12:47:53Z
2020-06-08T10:50:12Z,42.805,6.029,13.3015,4.60049,2470.11,2020-6-08T12:50:56Z
2020-06-08T10:53:15Z,42.805,6.029,13.3000,4.60031,2470.087,2020-6-08T12:53:59Z
2020-06-08T10:56:18Z,42.805,6.029,13.3027,4.60052,2470.1,2020-6-08T12:57:02Z
2020-06-08T10:59:22Z,42.805,6.029,13.3019,4.60018,2470.133,2020-6-08T13:00:06Z
2020-06-08T11:02:25Z,42.805,6.029,13.3024,4.60013,2470.087,2020-6-08T13:03:09Z
2020-06-08T11:05:28Z,42.805,6.029,13.3027,4.60012,2470.077,2020-6-08T13:06:12Z
2020-06-08T11:08:31Z,42.805,6.029,13.3011,4.59999,2470.11,2020-6-08T13:09:15Z
2020-06-08T11:11:35Z,42.805,6.029,13.3009,4.60057,2470.096,2020-6-08T13:12:18Z
2020-06-08T11:14:38Z,42.805,6.029,13.3027,4.60057,2470.087,2020-6-08T13:15:22Z
2020-06-08T11:17:41Z,42.805,6.029,13.3046,4.60056,2470.077,2020-6-08T13:18:25Z
2020-06-08T11:20:44Z,42.805,6.029,13.3035,4.60064,2470.063,2020-6-08T13:21:28Z
2020-06-08T11:23:48Z,42.805,6.029,13.3040,4.60039,2470.124,2020-6-08T13:24:31Z
2020-06-08T11:26:51Z,42.805,6.029,13.3056,4.60057,2470.1,2020-6-08T13:27:35Z
2020-06-08T11:29:54Z,42.805,6.029,13.3028,4.60058,2470.11,2020-6-08T13:30:38Z
2020-06-08T11:32:57Z,42.805,6.029,13.3040,4.60019,2470.087,2020-6-08T13:33:41Z
2020-06-08T11:36:01Z,42.805,6.029,13.3021,4.60052,2470.1,2020-6-08T13:36:45Z
2020-06-08T11:39:04Z,42.805,6.029,13.3029,4.60026,2470.087,2020-6-08T13:39:48Z
2020-06-08T11:42:07Z,42.805,6.029,13.3029,4.60040,2470.04,2020-6-08T13:42:51Z
2020-06-08T11:45:10Z,42.805,6.029,13.3017,4.60052,2470.087,2020-6-08T13:45:54Z
2020-06-08T11:48:14Z,42.805,6.029,13.3006,4.60075,2470.063,2020-6-08T13:48:58Z
2020-06-08T11:51:17Z,42.805,6.029,13.3008,4.60076,2470.1,2020-6-08T13:52:01Z
2020-06-08T11:54:20Z,42.805,6.029,13.3031,4.60067,2470.063,2020-6-08T13:55:04Z
2020-06-08T11:57:24Z,42.805,6.029,13.3011,4.60043,2470.077,2020-6-08T13:58:07Z
2020-06-08T12:00:27Z,42.805,6.029,13.3031,4.60050,2470.077,2020-6-08T14:01:11Z
2020-06-08T12:03:30Z,42.805,6.029,13.3041,4.60079,2470.077,2020-6-08T14:04:14Z
2020-06-08T12:06:33Z,42.805,6.029,13.3043,4.60089,2470.053,2020-6-08T14:07:17Z
2020-06-08T12:09:36Z,42.805,6.029,13.3055,4.60056,2470.053,2020-6-08T14:10:20Z
2020-06-08T12:12:40Z,42.805,6.029,13.3041,4.60029,2470.053,2020-6-08T14:13:23Z
2020-06-08T12:15:43Z,42.805,6.029,13.3069,4.60026,2470.077,2020-6-08T14:16:27Z
2020-06-08T12:18:46Z,42.805,6.029,13.3057,4.60011,2470.053,2020-6-08T14:19:30Z
2020-06-08T12:21:49Z,42.805,6.029,13.3015,4.60037,2470.063,2020-6-08T14:22:33Z
2020-06-08T12:24:53Z,42.805,6.029,13.3028,4.60101,2470.053,2020-6-08T14:25:37Z
2020-06-08T12:27:56Z,42.805,6.029,13.3056,4.60056,2470.1,2020-6-08T14:28:40Z
2020-06-08T12:30:59Z,42.805,6.029,13.3029,4.60050,2470.017,2020-6-08T14:31:43Z
2020-06-08T12:34:02Z,42.805,6.029,13.3046,4.60039,2470.063,2020-6-08T14:34:46Z
2020-06-08T12:37:06Z,42.805,6.029,13.3055,4.60047,2470.04,2020-6-08T14:37:49Z
2020-06-08T12:40:09Z,42.805,6.029,13.3015,4.60026,2470.04,2020-6-08T14:40:53Z
2020-06-08T12:43:12Z,42.805,6.029,13.3006,4.60021,2470.053,2020-6-08T14:43:56Z
2020-06-08T12:46:15Z,42.805,6.029,13.2999,4.60029,2470.063,2020-6-08T14:46:59Z
2020-06-08T12:49:19Z,42.805,6.029,13.3042,4.60099,2470.063,2020-6-08T14:50:03Z
2020-06-08T12:52:22Z,42.805,6.029,13.3029,4.60075,2470.03,2020-6-08T14:53:06Z
2020-06-08T12:55:25Z,42.805,6.029,13.3046,4.60027,2470.03,2020-6-08T14:56:09Z
2020-06-08T12:58:28Z,42.805,6.029,13.3012,4.60053,2470.03,2020-6-08T14:59:12Z
2020-06-08T13:01:32Z,42.805,6.029,13.3029,4.60020,2470.04,2020-6-08T15:02:16Z
2020-06-08T13:04:35Z,42.805,6.029,13.3034,4.60038,2470.017,2020-6-08T15:05:19Z
2020-06-08T13:07:38Z,42.805,6.029,13.3036,4.60041,2470.017,2020-6-08T15:08:22Z
2020-06-08T13:10:42Z,42.805,6.029,13.3031,4.60019,2470.017,2020-6-08T15:11:25Z
2020-06-08T13:13:45Z,42.805,6.029,13.3031,4.60055,2470.017,2020-6-08T15:14:29Z
2020-06-08T13:16:48Z,42.805,6.029,13.3024,4.60026,2470.03,2020-6-08T15:17:32Z
2020-06-08T13:19:52Z,42.805,6.029,13.3034,4.60044,2470.017,2020-6-08T15:20:35Z
2020-06-08T13:22:55Z,42.805,6.029,13.3052,4.60057,2470.077,2020-6-08T15:23:39Z
2020-06-08T13:25:58Z,42.805,6.029,13.3001,4.60026,2470.017,2020-6-08T15:26:42Z
2020-06-08T13:29:01Z,42.805,6.029,13.2996,4.60055,2470.017,2020-6-08T15:29:45Z
2020-06-08T13:32:05Z,42.805,6.029,13.3014,4.60075,2470.017,2020-6-08T15:32:48Z
2020-06-08T13:35:08Z,42.805,6.029,13.3006,4.60047,2470.017,2020-6-08T15:35:52Z
2020-06-08T13:38:11Z,42.805,6.029,13.3006,4.60025,2469.993,2020-6-08T15:38:55Z
2020-06-08T13:41:14Z,42.805,6.029,13.2985,4.60059,2470.017,2020-6-08T15:41:58Z
2020-06-08T13:44:17Z,42.805,6.029,13.2985,4.60059,2470.007,2020-6-08T15:45:01Z
2020-06-08T13:47:21Z,42.805,6.029,13.2993,4.60057,2470.017,2020-6-08T15:48:05Z
2020-06-08T13:50:24Z,42.805,6.029,13.2998,4.60047,2470.007,2020-6-08T15:51:08Z
2020-06-08T13:53:27Z,42.805,6.029,13.2987,4.60052,2470.017,2020-6-08T15:54:11Z
2020-06-08T13:56:30Z,42.805,6.029,13.2986,4.60070,2470.03,2020-6-08T15:57:14Z
2020-06-08T13:59:34Z,42.805,6.029,13.2997,4.60022,2470.017,2020-6-08T16:00:18Z
2020-06-08T14:02:37Z,42.805,6.029,13.2993,4.60050,2470.017,2020-6-08T16:03:21Z
2020-06-08T14:05:40Z,42.805,6.029,13.2992,4.60084,2470.017,2020-6-08T16:06:24Z
2020-06-08T14:08:43Z,42.805,6.029,13.2993,4.60040,2469.984,2020-6-08T16:09:27Z
2020-06-08T14:11:47Z,42.805,6.029,13.2988,4.60045,2470.03,2020-6-08T16:12:30Z
2020-06-08T14:14:50Z,42.805,6.029,13.2992,4.60043,2469.993,2020-6-08T16:15:34Z
2020-06-08T14:17:53Z,42.805,6.029,13.2991,4.60077,2470.017,2020-6-08T16:18:37Z
2020-06-08T14:20:57Z,42.805,6.029,13.2992,4.60080,2470.017,2020-6-08T16:21:41Z
2020-06-08T14:24:00Z,42.805,6.029,13.3004,4.60081,2470.053,2020-6-08T16:24:44Z
2020-06-08T14:27:03Z,42.805,6.029,13.3000,4.60087,2469.97,2020-6-08T16:27:47Z
2020-06-08T14:30:06Z,42.805,6.029,13.3002,4.60086,2470.017,2020-6-08T16:30:50Z
2020-06-08T14:33:09Z,42.805,6.029,13.2998,4.60062,2469.993,2020-6-08T16:33:53Z
2020-06-08T14:36:13Z,42.805,6.029,13.2998,4.60044,2470.017,2020-6-08T16:36:57Z
2020-06-08T14:39:16Z,42.805,6.029,13.2986,4.60038,2470.03,2020-6-08T16:40:00Z
2020-06-08T14:42:19Z,42.805,6.029,13.2986,4.60054,2470.03,2020-6-08T16:43:03Z
2020-06-08T14:45:23Z,42.805,6.029,13.2993,4.60033,2470.04,2020-6-08T16:46:07Z
2020-06-08T14:48:26Z,42.805,6.029,13.2991,4.60044,2470.007,2020-6-08T16:49:10Z
2020-06-08T14:51:29Z,42.805,6.029,13.2991,4.60051,2470.007,2020-6-08T16:52:13Z
2020-06-08T14:54:32Z,42.805,6.029,13.2991,4.60081,2470.017,2020-6-08T16:55:16Z
2020-06-08T14:57:35Z,42.805,6.029,13.2994,4.60044,2470.03,2020-6-08T16:58:19Z
2020-06-08T15:00:39Z,42.805,6.029,13.2991,4.60073,2470.007,2020-6-08T17:01:23Z
2020-06-08T15:03:42Z,42.805,6.029,13.2995,4.60040,2470.007,2020-6-08T17:04:26Z
2020-06-08T15:06:45Z,42.805,6.029,13.2988,4.60060,2469.984,2020-6-08T17:07:29Z
2020-06-08T15:09:48Z,42.805,6.029,13.2998,4.60068,2469.993,2020-6-08T17:10:32Z
2020-06-08T15:12:52Z,42.805,6.029,13.3005,4.60057,2469.97,2020-6-08T17:13:36Z
2020-06-08T15:15:55Z,42.805,6.029,13.3006,4.60052,2469.947,2020-6-08T17:16:39Z